Tracking 19485 objects as of 21-Jan-2019
HD Live streaming from Space Station
objects crossing your sky now

COSMOS 646

Track COSMOS 646 now!
10-day predictions
COSMOS 646 is classified as:


NORAD ID: 7270
Int'l Code: 1974-024F
Perigee: 1,410.3 km
Apogee: 1,491.4 km
Inclination: 74.0 °
Period: 114.7 minutes
Semi major axis: 7821 km
RCS: 0.7128 m2 (medium)
Launch date: April 23, 1974
Source: Commonwealth of Independent States (former USSR) (CIS)
Launch site: PLESETSK MISSILE AND SPACE COMPLEX (PKMTR)
aabbcc
Your satellite tracking list
Your tracking list is empty




NASA's NSSDC Master Catalog

Two Line Element Set (TLE):
1  7270U 74024F   19020.75741079 -.00000005 +00000-0 +68558-4 0  9997
2  7270 074.0181 100.9783 0051850 195.3322 311.7058 12.54980171049894
Source of the keplerian elements: AFSPC